Starlink 32833

operational
NORAD ID: 62873 Int'l Des: 2025-022 Owner: SPXS Country: US Constellation: starlink
LEOCIRCULAR

About Starlink 32833

Description loading...

Live Position

Loading 3D Globe...

Upcoming Passes

Altitude History

Altitude vs Time

uPlot chart will show altitude changes over time

Two-Line Element Set

1 62873U 25022V 25350.75537826 .00010507 00000-0 36630-3 0 9999
2 62873 53.1573 154.7592 0000927 87.8130 272.2977 15.30207097 49205
Epoch: Dec 16, 2025 • Age: 22 hours

Current Status

Altitude 478.9 km
Velocity 7.63 km/s
Sub-Earth Point -13.37°S, 173.77°E
Launch Date Feb 2, 2025
Age 0.8 years
Type internet

Technical Details

Classification Payload
Mass 730.00 kg
Dry Mass 700.00 kg
Total Mass 730.00 kg
Length 0.30 m
Diameter 4.10 m
Span 29.00 m
Shape Box + pan
Manufacturer SPXS
Bus Type Starlink V2M
Phase Status In Orbit
Owner/State SPXS/US

Large Constellations

Loading constellations...